7 * 24
多渠道服务支持
STARLINK-37576(NORAD编号69047)是SpaceX星链互联网星座中的一颗低地球轨道(LEO)卫星,隶属于SpaceX公司主导的全球卫星互联网项目。该卫星旨在为全球目前缺乏网络覆盖的地区提供低延迟、高速的互联网接入服务,延续星链项目星座组网布局。 作为星链大规模量产卫星中的一员,它工作在近地轨道,结合地面收发站实现全球网络覆盖。当前星链项目已完成多批次卫星发射部署,逐步推进版本升级,STARLINK-37576是星链扩张全球联网覆盖过程中的一员,助力实现全球泛在互联的目标。(150字)
美国
(US)
| 数据来源 | 国际轨道数据 |
| 星历时间: | 2026-07-27T21:13:57+0800 11小时前 查看轨道信息 |
| 半长轴: | 6843.649km |
| 偏心率: | 0.0001754 |
| 轨道倾角: | 97.285° |
| 近地点辐角 | 92.980° |
| 升交点赤经 | 62.904° |
| 平近点角 | 267.164° |
| 近地点: | 464.311km |
| 远地点: | 466.713km |
| 周期: | 93.906分钟 |
| 每日圈数: | 15.334556 |